Location: Les Salelles
(44.4192°N, 4.1044°E)
Time: 15:03:08
(UTC+00:00)

COSMOS 2406 - Pass Details

Date: 20 January 2021
Orbit: 841 x 866 km, 71.0° (Epoch: 26 February)

Event Time Altitude Azimuth Distance (km) Brightness Sun altitude
Rises 19:09:03 0° 337° (NNW) 3,458 6.6 -26.9°
Reaches altitude 10° 19:11:36 10° 343° (NNW) 2,517 5.8 -27.4°
Enters shadow 19:15:01 34° 3° (N) 1,396 4.2 -28.0°
